Showing default

NUSAT-53 (JANE GOODALL), 68432

Orbit data source: Space-Track

NUSAT-53 (JANE GOODALL), 68432 is a payload satellite owned by URUGUS S.A. (AR) in SSO that was launched on Mon, 30 Mar 2026 UTC via an FALCON 9 launch vehicle from the Air Force Western Test Range (AFWTR). Payload-class satellites include a variety of spacecraft equipped with specific instruments for various scientific and technological missions. These include communications satellites like Starlink; space stations such as the ISS; scientific satellites like the Hubble; Earth observation satellites from companies like Planet Labs, Umbra, and HawkEye 360; GPS; miniature CubeSats for education and research; and military/defense satellites.

Loading next visibility...
Identifier
68432, 2026-067S
Orbit
SSO
Country
Flag of ARAR / ARGN
Related business
Manufacturer
URUGUS S.A.
Mission
Operational spacecraft
Bus & Motor
NEWSAT V, Unknown motor
Mass
41.5 kg wet, 38.5 kg dry
Launch date (UTC)
2026-03-30 (3 months ago)
Launch vehicle
FALCON 9
Launch site
Air Force Western Test Range (AFWTR)
Object type
Payload
Rocket body
Debris
Shape & HBR
Unknown shape, 0.5 m
Radar Cross Section
Medium (>0.1 m² and <1 m²)

Expand to show TLE details & history
Last TLE update: 1 day ago

TLE from 1 day ago
0 NUSAT-53 (JANE GOODALL)
1 68432U 26067S   26171.42849539  .00004931  00000-0  24162-3 0  9990
2 68432  97.4560 129.8799 0003376  49.0117 311.1409 15.18603480 12437
Epoch: 2026-06-20T10:17Z
TLE epoch observation values (Epoch: 2026-06-20T10:17:02.001Z)
Latitude
-0.00002°
Longitude
66.97831°
Altitude
511.618 km
Speed
7.609 km/s
True Right ascension
08h 39m 31s
True Declination
0° 00' 00"
Sunlit
Object was in daylight at epoch
Visualization orbit readout
Latitude
Unknown
Longitude
Unknown
Altitude
Unknown
Speed
Unknown
Apparent Right ascension
Unknown
Apparent Declination
Unknown
Sunlit
N/A
Visualization observer readout
Local Sidereal Time
09:06:34
Azimuth
Unknown
Elevation
Unknown
Doppler factor
Unknown
Orbital elements
Apogee altitude
509.355 km
Perigee altitude
504.706 km
Semi-major axis
6,885.167 km
Eccentricity
0.00034
Inclination
97.456°
RAAN
129.8799°
Arg. of periapsis
49.0117°
True anomaly
311.11176°
Mean anomaly
311.1409°
Eccentric anomaly
311.12633°
Mean motion
3.79902 °/min
Orbital period
94.76 mins
BSTAR
0.00024162
Loading maneuver chart data...
Computing Atmospheric mass density...
Loading historical data...
Loading historical data...
Loading historical data...
Loading historical data...
Loading historical data...
Loading historical data...
Loading historical data...

Documentation

Showing up to 5 results
|